• In Hungary
  • List of Countries
  • For 7 days
  • Water Temperature
  • Satellite Maps
  • Weather Map
  • News
  • Weather Widgets
  • user-avatar
    Login

    Hourly Weather Czarnorzeki

    Today, 23 September, Sunday

    Time Temperature Precipitation Wind Pressure Humidity
    00:00 +8°C° 0 mm 2 mps 722 mmHg 77%
    01:00 +9°C° 0 mm 2 mps 722 mmHg 77%
    02:00 +8°C° 0 mm 2 mps 721 mmHg 79%
    03:00 +8°C° 0 mm 2 mps 721 mmHg 80%
    04:00 +8°C° 0 mm 2 mps 721 mmHg 81%
    05:00 +8°C° 0 mm 3 mps 721 mmHg 80%
    06:00 +9°C° 0 mm 3 mps 721 mmHg 79%
    07:00 +9°C° 0 mm 3 mps 721 mmHg 78%
    08:00 +11°C° 0 mm 4 mps 721 mmHg 70%
    09:00 +12°C° 0 mm 4 mps 721 mmHg 63%
    10:00 +14°C° 0 mm 4 mps 721 mmHg 56%
    11:00 +15°C° 0 mm 4 mps 721 mmHg 54%
    12:00 +15°C° 0 mm 4 mps 720 mmHg 52%
    13:00 +17°C° 0 mm 4 mps 720 mmHg 50%
    14:00 +15°C° 0 mm 4 mps 720 mmHg 53%
    15:00 +16°C° 0 mm 3 mps 719 mmHg 56%
    16:00 +16°C° 0 mm 3 mps 719 mmHg 59%
    17:00 +14°C° 0 mm 4 mps 718 mmHg 61%
    18:00 +14°C° 0 mm 4 mps 717 mmHg 63%
    19:00 +13°C° 0 mm 5 mps 716 mmHg 65%
    20:00 +13°C° 0 mm 6 mps 715 mmHg 63%
    21:00 +13°C° 0 mm 8 mps 713 mmHg 61%
    22:00 +13°C° 0 mm 9 mps 712 mmHg 59%
    23:00 +13°C° 1.1 mm 9 mps 711 mmHg 65%

    Tomorrow, 24 September, Monday

    Time Temperature Precipitation Wind Pressure Humidity
    00:00 +13°C° 1.1 mm 9 mps 710 mmHg 71%
    01:00 +12°C° 1.1 mm 9 mps 710 mmHg 78%
    02:00 +12°C° 3.6 mm 9 mps 710 mmHg 82%
    03:00 +12°C° 3.6 mm 9 mps 710 mmHg 86%
    04:00 +11°C° 3.6 mm 8 mps 710 mmHg 90%
    05:00 +10°C° 0.8 mm 8 mps 712 mmHg 89%
    06:00 +7°C° 0.8 mm 8 mps 713 mmHg 88%
    07:00 +6°C° 0.8 mm 8 mps 714 mmHg 88%
    08:00 +6°C° 0.2 mm 8 mps 716 mmHg 85%
    09:00 +6°C° 0.2 mm 8 mps 717 mmHg 82%
    10:00 +7°C° 0.2 mm 8 mps 718 mmHg 79%
    11:00 +7°C° 0.3 mm 8 mps 719 mmHg 75%
    12:00 +9°C° 0.3 mm 8 mps 719 mmHg 70%
    13:00 +8°C° 0.3 mm 9 mps 720 mmHg 65%
    14:00 +9°C° 0.1 mm 8 mps 720 mmHg 63%
    15:00 +7°C° 0.1 mm 8 mps 721 mmHg 62%
    16:00 +8°C° 0.1 mm 7 mps 721 mmHg 61%
    17:00 +6°C° 0 mm 7 mps 721 mmHg 63%
    18:00 +5°C° 0 mm 6 mps 722 mmHg 65%
    19:00 +4°C° 0 mm 6 mps 722 mmHg 68%
    20:00 +4°C° 0 mm 6 mps 722 mmHg 68%
    21:00 +4°C° 0 mm 6 mps 722 mmHg 68%
    22:00 +3°C° 0 mm 6 mps 723 mmHg 68%
    23:00 +3°C° 0.4 mm 6 mps 723 mmHg 73%

    Day after tomorrow, 25 September, Tuesday

    Time Temperature Precipitation Wind Pressure Humidity
    00:00 +3°C° 0.4 mm 6 mps 723 mmHg 79%
    01:00 +3°C° 0.4 mm 6 mps 724 mmHg 85%
    02:00 +3°C° 0 mm 6 mps 724 mmHg 87%
    03:00 +2°C° 0 mm 5 mps 725 mmHg 88%
    04:00 +3°C° 0 mm 4 mps 725 mmHg 90%
    05:00 +3°C° 0 mm 4 mps 726 mmHg 88%
    06:00 +2°C° 0 mm 5 mps 727 mmHg 86%
    07:00 +3°C° 0 mm 5 mps 728 mmHg 85%
    08:00 +5°C° 0.1 mm 5 mps 728 mmHg 77%
    09:00 +5°C° 0.1 mm 6 mps 729 mmHg 69%
    10:00 +7°C° 0.1 mm 6 mps 729 mmHg 61%
    11:00 +8°C° 0.2 mm 6 mps 729 mmHg 59%
    12:00 +8°C° 0.2 mm 6 mps 729 mmHg 57%
    13:00 +8°C° 0.2 mm 6 mps 730 mmHg 55%
    14:00 +8°C° 0.1 mm 6 mps 730 mmHg 56%
    15:00 +8°C° 0.1 mm 5 mps 730 mmHg 57%
    16:00 +7°C° 0.1 mm 4 mps 730 mmHg 59%
    17:00 +6°C° 0 mm 4 mps 730 mmHg 62%
    18:00 +5°C° 0 mm 3 mps 731 mmHg 65%
    19:00 +4°C° 0 mm 2 mps 731 mmHg 68%
    20:00 +4°C° 0 mm 2 mps 731 mmHg 68%
    21:00 +3°C° 0 mm 2 mps 732 mmHg 69%
    22:00 +3°C° 0 mm 2 mps 732 mmHg 70%
    23:00 +2°C° 0 mm 2 mps 732 mmHg 72%

    26 September, Wednesday

    Time Temperature Precipitation Wind Pressure Humidity
    00:00 +2°C° 0 mm 2 mps 733 mmHg 73%
    01:00 +2°C° 0 mm 1 mps 733 mmHg 75%
    02:00 +2°C° 0 mm 1 mps 733 mmHg 76%
    03:00 +2°C° 0 mm 1 mps 733 mmHg 78%
    04:00 +2°C° 0 mm 1 mps 733 mmHg 79%
    05:00 +2°C° 0 mm 1 mps 733 mmHg 77%
    06:00 +3°C° 0 mm 1 mps 733 mmHg 74%
    07:00 +4°C° 0 mm 1 mps 733 mmHg 71%
    08:00 +5°C° 0 mm 2 mps 733 mmHg 62%
    09:00 +8°C° 0 mm 2 mps 734 mmHg 54%
    10:00 +10°C° 0 mm 2 mps 734 mmHg 46%
    11:00 +12°C° 0 mm 2 mps 733 mmHg 43%
    12:00 +12°C° 0 mm 2 mps 733 mmHg 40%
    13:00 +13°C° 0 mm 2 mps 732 mmHg 38%
    14:00 +13°C° 0 mm 2 mps 732 mmHg 41%
    15:00 +12°C° 0 mm 2 mps 731 mmHg 45%
    16:00 +12°C° 0 mm 2 mps 731 mmHg 49%
    17:00 +10°C° 0 mm 2 mps 730 mmHg 51%
    18:00 +8°C° 0 mm 2 mps 730 mmHg 53%
    19:00 +7°C° 0 mm 2 mps 730 mmHg 56%
    20:00 +7°C° 0 mm 3 mps 730 mmHg 57%
    21:00 +7°C° 0 mm 3 mps 730 mmHg 57%
    22:00 +7°C° 0 mm 3 mps 729 mmHg 58%
    23:00 +7°C° 0 mm 3 mps 729 mmHg 59%

    27 September, Thursday

    Time Temperature Precipitation Wind Pressure Humidity
    00:00 +5°C° 0 mm 3 mps 729 mmHg 60%
    01:00 +5°C° 0 mm 4 mps 728 mmHg 61%
    02:00 +5°C° 0 mm 4 mps 728 mmHg 60%
    03:00 +5°C° 0 mm 4 mps 728 mmHg 58%
    04:00 +5°C° 0 mm 4 mps 727 mmHg 57%
    05:00 +6°C° 0 mm 4 mps 727 mmHg 57%
    06:00 +6°C° 0 mm 4 mps 727 mmHg 56%
    07:00 +6°C° 0 mm 4 mps 727 mmHg 55%
    08:00 +7°C° 0.1 mm 4 mps 727 mmHg 54%
    09:00 +8°C° 0.1 mm 5 mps 727 mmHg 53%
    10:00 +9°C° 0.1 mm 5 mps 727 mmHg 51%
    11:00 +12°C° 0 mm 5 mps 727 mmHg 49%
    12:00 +14°C° 0 mm 5 mps 727 mmHg 47%
    13:00 +16°C° 0 mm 5 mps 727 mmHg 44%
    14:00 +15°C° 0 mm 4 mps 726 mmHg 47%
    15:00 +15°C° 0 mm 4 mps 726 mmHg 51%
    16:00 +15°C° 0 mm 4 mps 726 mmHg 54%
    17:00 +14°C° 0 mm 3 mps 726 mmHg 55%
    18:00 +13°C° 0 mm 3 mps 726 mmHg 56%
    19:00 +12°C° 0 mm 3 mps 726 mmHg 57%
    20:00 +11°C° 0 mm 3 mps 726 mmHg 58%
    21:00 +12°C° 0 mm 2 mps 726 mmHg 59%
    22:00 +12°C° 0 mm 2 mps 726 mmHg 60%
    23:00 +10°C° 0 mm 2 mps 726 mmHg 62%

    28 September, Friday

    Time Temperature Precipitation Wind Pressure Humidity
    00:00 +10°C° 0 mm 2 mps 725 mmHg 64%
    01:00 +9°C° 0 mm 2 mps 725 mmHg 66%
    02:00 +9°C° 0 mm 2 mps 725 mmHg 66%
    03:00 +8°C° 0 mm 2 mps 724 mmHg 67%
    04:00 +8°C° 0 mm 2 mps 724 mmHg 67%
    05:00 +8°C° 0 mm 3 mps 724 mmHg 67%
    06:00 +9°C° 0 mm 3 mps 724 mmHg 66%
    07:00 +10°C° 0 mm 3 mps 724 mmHg 66%
    08:00 +12°C° 0 mm 3 mps 724 mmHg 61%
    09:00 +14°C° 0 mm 3 mps 724 mmHg 56%
    10:00 +17°C° 0 mm 3 mps 724 mmHg 51%
    11:00 +18°C° 0 mm 3 mps 724 mmHg 50%
    12:00 +19°C° 0 mm 3 mps 724 mmHg 49%
    13:00 +20°C° 0 mm 3 mps 724 mmHg 47%
    14:00 +20°C° 0 mm 2 mps 724 mmHg 51%
    15:00 +19°C° 0 mm 2 mps 723 mmHg 55%
    16:00 +19°C° 0 mm 2 mps 723 mmHg 59%
    17:00 +18°C° 0 mm 1 mps 723 mmHg 62%
    18:00 +15°C° 0 mm 1 mps 723 mmHg 66%
    19:00 +13°C° 0 mm 1 mps 723 mmHg 70%
    20:00 +12°C° 0 mm 1 mps 723 mmHg 71%
    21:00 +12°C° 0 mm 1 mps 723 mmHg 73%
    22:00 +11°C° 0 mm 1 mps 723 mmHg 75%
    23:00 +11°C° 0 mm 1 mps 723 mmHg 76%
    Show more